Mansfield, OH

9:27 AM EST on December 04, 2016 (GMT -0500)
Mansfield Lahm Regional

Weather History for KMFD - October, 2011

Change the Weather History Date:

Saturday, October 29, 2011

  Actual Average Record
Temperature  
Mean Temperature 39 °F 48 °F  
Max Temperature 51 °F 57 °F 79 °F (1922)
Min Temperature 27 °F 38 °F 17 °F (1925)
Degree Days  
Heating Degree Days 26 17  
Month to date heating degree days 337 382  
Since 1 July heating degree days 455 532  
Cooling Degree Days 0 0  
Month to date cooling degree days 2 5  
Year to date cooling degree days 896 630  
Moisture  
Dew Point 32 °F    
Average Humidity 73    
Maximum Humidity 100    
Minimum Humidity 46    
Precipitation  
Precipitation T in 0.10 in 1.24 in (2012)
Month to date precipitation 3.78 2.73  
Year to date precipitation 46.21 36.88  
Snow  
Snow 0.00 in 0.00 in - ()
Month to date snowfall 0.0 0.4  
Since 1 July snowfall 0.0 0.4  
Since 1 September snowfall 0.0 0.4  
Snow Depth 0.00 in    
Sea Level Pressure  
Sea Level Pressure 30.09 in    
Wind  
Wind Speed 3 mph (SSW)    
Max Wind Speed 14 mph    
Max Gust Speed 18 mph    
Visibility 9 miles    
Events Rain    
T = Trace of Precipitation, MM = Missing Value Source: NWS Daily Summary

Daily Weather History Graph

Daily Weather History Graph

Search for Another Location

Airport or City:

Trip Planner

Search our weather history database for the weather conditions in past years. The results will help you decide how hot, cold, wet, or windy it might be!

Date:

Astronomy

Oct. 29, 2011 Rise Set
Actual Time 7:56 AM EDT 6:30 PM EDT
Civil Twilight 7:28 AM EDT 6:58 PM EDT
Nautical Twilight 6:56 AM EDT 7:30 PM EDT
Astronomical Twilight 6:24 AM EDT 8:02 PM EDT
Moon 11:18 AM EDT (10/29) 8:51 PM EDT (10/29)
Length of Visible Light 11h 30m
Length of Day
10h 33m
Waxing Crescent, 11% of the Moon is Illuminated
Oct 29
Waxing Crescent
Nov 2
First Quarter
Nov 10
Full
Nov 18
Last Quarter
Nov 25
New

Hourly Weather History & Observations

Time (EDT) Temp. Windchill Dew Point Humidity Pressure Visibility Wind Dir Wind Speed Gust Speed Precip Events Conditions
12:52 AM 33.1 °F 30.0 °F 30.9 °F 92% 30.12 in 10.0 mi South 3.5 mph - N/A   Clear
1:52 AM 33.8 °F - 30.2 °F 87% 30.09 in 10.0 mi Calm Calm - N/A   Clear
2:52 AM 30.9 °F - 28.9 °F 92% 30.09 in 10.0 mi Calm Calm - N/A   Clear
3:52 AM 28.0 °F - 28.0 °F 100% 30.09 in 7.0 mi Calm Calm - N/A   Clear
4:52 AM 28.9 °F - 28.9 °F 100% 30.09 in 6.0 mi Calm Calm - N/A   Clear
5:52 AM 28.4 °F 24.6 °F 28.4 °F 100% 30.06 in 7.0 mi SSE 3.5 mph - N/A   Partly Cloudy
6:52 AM 30.0 °F - 28.9 °F 96% 30.09 in 9.0 mi Calm Calm - N/A   Scattered Clouds
7:52 AM 28.0 °F 24.2 °F 28.0 °F 100% 30.11 in 7.0 mi SSE 3.5 mph - N/A   Scattered Clouds
8:06 AM 30.2 °F 25.4 °F 28.4 °F 93% 30.06 in 7.0 mi South 4.6 mph - N/A   Mostly Cloudy
8:13 AM 30.2 °F - 30.2 °F 100% 30.07 in 7.0 mi Calm Calm - N/A   Scattered Clouds
8:52 AM 30.9 °F 25.2 °F 30.9 °F 100% 30.10 in 4.0 mi ESE 5.8 mph - N/A   Scattered Clouds
9:52 AM 36.0 °F 31.1 °F 35.1 °F 97% 30.10 in 7.0 mi SSE 5.8 mph - N/A   Partly Cloudy
10:52 AM 41.0 °F - 35.1 °F 79% 30.10 in 10.0 mi Calm Calm - N/A   Clear
11:52 AM 44.1 °F - 35.1 °F 71% 30.09 in 10.0 mi Calm Calm - N/A   Clear
12:24 PM 46.4 °F 43.5 °F 33.8 °F 62% 30.07 in 10.0 mi West 5.8 mph - N/A   Mostly Cloudy
12:37 PM 46.4 °F 45.2 °F 33.8 °F 62% 30.06 in 10.0 mi Variable 3.5 mph - N/A   Scattered Clouds
12:52 PM 45.0 °F 42.6 °F 32.0 °F 60% 30.09 in 10.0 mi West 4.6 mph - N/A   Scattered Clouds
1:52 PM 48.9 °F - 32.0 °F 52% 30.06 in 10.0 mi Variable 4.6 mph - N/A   Mostly Cloudy
2:52 PM 48.9 °F - 32.0 °F 52% 30.06 in 10.0 mi WNW 6.9 mph - N/A   Overcast
3:52 PM 48.0 °F - 30.9 °F 52% 30.05 in 10.0 mi WSW 5.8 mph - N/A   Overcast
4:52 PM 50.0 °F - 30.0 °F 46% 30.05 in 10.0 mi West 4.6 mph - N/A   Mostly Cloudy
5:52 PM 48.0 °F - 32.0 °F 54% 30.06 in 10.0 mi WSW 4.6 mph - N/A   Mostly Cloudy
6:52 PM 43.0 °F 41.3 °F 34.0 °F 71% 30.09 in 10.0 mi North 3.5 mph - N/A   Mostly Cloudy
7:52 PM 39.0 °F - 35.1 °F 86% 30.11 in 10.0 mi Calm Calm - N/A   Scattered Clouds
8:52 PM 37.9 °F 30.0 °F 37.0 °F 97% 30.14 in 10.0 mi NW 12.7 mph - 0.00 in Rain Light Rain
9:52 PM 35.1 °F 31.0 °F 35.1 °F 100% 30.12 in 9.0 mi East 4.6 mph - 0.00 in   Clear
10:52 PM 34.0 °F 29.8 °F 34.0 °F 100% 30.13 in 5.0 mi South 4.6 mph - N/A   Clear
11:52 PM 34.0 °F 28.8 °F 34.0 °F 100% 30.14 in 5.0 mi SW 5.8 mph - N/A   Clear